Skip Page Navigation
NASA JPL Caltech
NASA Logo - Jet Propulsion Laboratory + View the NASA Portal
+ Center for Near-Earth Object Studies
JPL Home Earth Solar System Stars & Galaxies Technology
JPL Solar System Dynamics
BODIES ORBITS EPHEMERIDES TOOLS PHYSICAL DATA DISCOVERY FAQ SITE MAP
IMPORTANT: The SSD Announcement email list is now available. Major changes are coming in the near future, including possible hostname and/or URL changes. To be notified of such changes, subscribe to this email list.

Please visit this page for more details.


JPL Small-Body Database Browser
Search: [ help ]  
48541 (1993 TV10)
Classification: Main-belt Asteroid          SPK-ID: 2048541
Ephemeris | Orbit Diagram | Orbital Elements | Mission Design | Physical Parameters | Discovery Circumstances | Close-Approach Data ]

[ show orbit diagram ]
Orbital Elements at Epoch 2459000.5 (2020-May-31.0) TDB
Reference: JPL 21 (heliocentric ecliptic J2000)
 Element Value Uncertainty (1-sigma)   Units 
e .1519058593293539 4.3622e-08  
a 2.671297081213921 1.0969e-08 au
q 2.265511402568126 1.1675e-07 au
i 11.37857030570674 5.7703e-06 deg
node 219.9746079161311 1.8376e-05 deg
peri 33.3468159849265 2.4783e-05 deg
M 149.4647092668962 1.6018e-05 deg
tp 2458338.408713711229
(2018-Aug-07.90871371)
7.0267e-05 TDB
period 1594.709976910573
4.37
9.8224e-06
2.689e-08
d
yr
n .2257463772173965 1.3905e-09 deg/d
Q 3.077082759859716 1.2635e-08 au
  Orbit Determination Parameters
   # obs. used (total)      1416  
   data-arc span      9539 days (26.12 yr)  
   first obs. used      1993-10-15  
   last obs. used      2019-11-27  
   planetary ephem.      DE431  
   SB-pert. ephem.      SB431-N16  
   condition code      0  
   norm. resid. RMS      .50481  
   source      ORB  
   producer      Otto Matic  
   solution date      2019-Dec-14 04:12:47  

Additional Information
 Earth MOID = 1.26101 au 
 Jupiter MOID = 1.96739 au 
 T_jup = 3.336 
[ hide covariance matrix ]
Orbital Elements at Epoch 2456819.5 (2014-Jun-11.0) TDB
Reference: JPL 21 (heliocentric ecliptic J2000)
 Element Value Uncertainty (1-sigma)   Units 
e .1518696763484064 4.3344e-08  
q 2.265977415338788 1.1594e-07 au
tp 2456745.586824316873
(2014-Mar-29.08682432)
7.0269e-05 TDB
node 219.9912903384988 1.8378e-05 deg
peri 33.74718348680421 2.488e-05 deg
i 11.37696685734992 5.771e-06 deg
  Orbit Determination Parameters
   # obs. used (total)      1416  
   data-arc span      9539 days (26.12 yr)  
   first obs. used      1993-10-15  
   last obs. used      2019-11-27  
   planetary ephem.      DE431  
   SB-pert. ephem.      SB431-N16  
   condition code      0  
   norm. resid. RMS      .50481  
   source      ORB  
   producer      Otto Matic  
   solution date      2019-Dec-14 04:12:47  

Additional Information
 Jupiter MOID = 1.96739 au 
 T_jup = 3.336 
Orbit Covariance (6×6)
  e q tp node peri i
e 1.8787049303906E-15 -5.009029404489735E-15 -1.46963012233399E-12 6.160575596706525E-15 -3.919375882029671E-13 3.135851649174725E-16
q -5.009029404489735E-15 1.344272973948271E-14 3.913702862243379E-12 -1.698926572195149E-14 1.045096730643826E-12 -7.065876787056281E-16
tp -1.46963012233399E-12 3.913702862243379E-12 4.937672621515943E-9 -1.384950643288135E-11 1.186383922682636E-9 -6.157094295546155E-13
node 6.160575596706525E-15 -1.698926572195149E-14 -1.384950643288135E-11 3.37738761997402E-10 -3.339259730647138E-10 -2.490280990596381E-11
peri -3.919375882029671E-13 1.045096730643826E-12 1.186383922682636E-9 -3.339259730647138E-10 6.190229472246555E-10 2.424571395167422E-11
i 3.135851649174725E-16 -7.065876787056281E-16 -6.157094295546155E-13 -2.490280990596381E-11 2.424571395167422E-11 3.330491989716519E-11

Ephemeris | Orbit Diagram | Orbital Elements | Mission Design | Physical Parameters | Discovery Circumstances | Close-Approach Data ]

Physical Parameter Table
Parameter Symbol Value Units Sigma Reference Notes
absolute magnitude H 14.1   n/a MPO452832  
diameter diameter 9.143 km 0.095 urn:nasa:pds:neowise_diameters_albedos::2.0[mainbelt] (http://adsabs.harvard.edu/abs/2011ApJ...741...68M)  
geometric albedo albedo 0.046   0.007 urn:nasa:pds:neowise_diameters_albedos::2.0[mainbelt] (http://adsabs.harvard.edu/abs/2011ApJ...741...68M)  

48541 (1993 TV10)          Discovered 1993-Oct-15 by Spacewatch at Kitt Peak
Reference: 20021120/Numbers.arcLast Updated: 2004-04-19

[ show close-approach data ]
Alternate Designations
 1993 TV10 = 2000 EW107 
Ephemeris | Orbit Diagram | Orbital Elements | Mission Design | Physical Parameters | Discovery Circumstances | Close-Approach Data ]
ABOUT SSD CREDITS/AWARDS PRIVACY/COPYRIGHT GLOSSARY LINKS
FirstGov 2020-Feb-18 12:56 UT
(server date/time)  
NASA Home Page
Site Manager:   Ryan S. Park
Webmaster  Alan B. Chamberlin